This is the latest recevied weather packets stored in our database for station/object SQ7FJB-2. If no packets are shown the sender has not sent any weather packets the latest 10 day(s).
| Time | Temp. | Humidity | Pressure | Rain* | Wind** | Luminosity | Snow |
|---|---|---|---|---|---|---|---|
| 1777508058 | -4.44° C | 91% | 1029 hPa | 0 mm | - | - | - |
| 1777507458 | -4.44° C | 90% | 1028.9 hPa | 0 mm | - | - | - |
| 1777506846 | -4.44° C | 90% | 1029 hPa | 0 mm | - | - | - |
| 1777506246 | -3.89° C | 89% | 1029 hPa | 0 mm | - | - | - |
| 1777505646 | -3.89° C | 89% | 1029 hPa | 0 mm | - | - | - |
| 1777505034 | -3.89° C | 88% | 1029 hPa | 0 mm | - | - | - |
| 1777504434 | -3.33° C | 87% | 1029 hPa | 0 mm | - | - | - |
| 1777503833 | -3.89° C | 89% | 1029.1 hPa | 0 mm | - | - | - |
| 1777503222 | -3.89° C | 87% | 1029 hPa | 0 mm | - | - | - |
| 1777502621 | -3.33° C | 86% | 1028.9 hPa | 0 mm | - | - | - |
| 1777502021 | -2.78° C | 85% | 1028.9 hPa | 0 mm | - | - | - |
| 1777501409 | -2.78° C | 85% | 1028.9 hPa | 0 mm | - | - | - |
| 1777500808 | -2.78° C | 85% | 1028.9 hPa | 0 mm | - | - | - |
| 1777500208 | -2.78° C | 86% | 1028.9 hPa | 0 mm | - | - | - |
| 1777499596 | -2.78° C | 86% | 1028.8 hPa | 0 mm | - | - | - |
| 1777498996 | -2.78° C | 86% | 1028.8 hPa | 0 mm | - | - | - |
| 1777498383 | -2.22° C | 85% | 1028.8 hPa | 0 mm | - | - | - |
| 1777497771 | -2.22° C | 86% | 1028.7 hPa | 0 mm | - | - | - |
| 1777497158 | -2.78° C | 86% | 1028.6 hPa | 0 mm | - | - | - |
| 1777496545 | -2.22° C | 85% | 1028.6 hPa | 0 mm | - | - | - |
| 1777495933 | -2.22° C | 85% | 1028.5 hPa | 0 mm | - | - | - |
| 1777495334 | -2.22° C | 83% | 1028.5 hPa | 0 mm | - | - | - |
| 1777494721 | -2.22° C | 82% | 1028.4 hPa | 0 mm | - | - | - |
| 1777494121 | -1.67° C | 82% | 1028.3 hPa | 0 mm | - | - | - |
| 1777493508 | -1.67° C | 79% | 1028.4 hPa | 0 mm | - | - | - |
* Rain latest hour (hover to see other rain measurements)
** Current wind speed in m/s (hover to see current wind gust speed)